Temp: 0.3°C   Baro: 1049.4mb
  Wind: 0.0mph   Dir: NW (316°)
  Rain: 0.0mm (0.0mm/hr)
  Solar: 0W/m2  Hum: 93%
 
Bath Spa Weather Historical Data
Daily Summary for October 21, 2019 Units:  Metric    English   Both
Next Day »
Daily Weekly Monthly Yearly Custom
  High: Low: Average:
Temperature: 13.5 °C 8.9 °C 10.6 °C
Dew Point: 9.7 °C 7.2 °C 8.3 °C
Humidity: 92% 75% 86%
Wind Speed: 19.5km/h 0.0km/h 4.8km/h
Wind Gust: 22.5km/h - -
Wind direction- - SSW
Pressure: 1023.2 hPa 1015.8 hPa -
Precipitation: 0.0 mm    
Historical Graphs
 
 
Tabular Data for October 21, 2019
Time Temperature Dew Point Pressure Wind direction Wind Speed Wind Gust Humidity Rainfall Rate (Hourly) solar
00:00 9.9 °C 8.2 °C 1015.8 hPa North 9.7 km/h 9.7 km/h 89% 0.0 mm 0.00 W/m2
00:05 9.9 °C 8.2 °C 1015.8 hPa NNW 3.2 km/h 6.4 km/h 89% 0.0 mm 0.00 W/m2
00:10 9.9 °C 8.2 °C 1015.8 hPa North 3.2 km/h 12.9 km/h 89% 0.0 mm 0.00 W/m2
00:15 9.9 °C 8.2 °C 1015.8 hPa Calm   4.8 km/h 89% 0.0 mm 0.00 W/m2
00:20 9.9 °C 8.0 °C 1015.8 hPa Calm   3.2 km/h 88% 0.0 mm 0.00 W/m2
00:25 9.9 °C 8.2 °C 1015.8 hPa North 1.4 km/h 4.8 km/h 89% 0.0 mm 0.00 W/m2
00:30 9.9 °C 8.2 °C 1015.8 hPa Calm   3.2 km/h 89% 0.0 mm 0.00 W/m2
00:35 9.8 °C 8.1 °C 1016.1 hPa North 1.4 km/h 4.8 km/h 89% 0.0 mm 0.00 W/m2
00:40 9.8 °C 8.1 °C 1016.1 hPa Calm   6.4 km/h 89% 0.0 mm 0.00 W/m2
00:45 9.8 °C 8.1 °C 1016.1 hPa Calm   3.2 km/h 89% 0.0 mm 0.00 W/m2
00:50 9.8 °C 8.1 °C 1015.8 hPa WNW 1.4 km/h 8.0 km/h 89% 0.0 mm 0.00 W/m2
00:55 9.8 °C 8.1 °C 1015.8 hPa NNE 6.4 km/h 11.3 km/h 89% 0.0 mm 0.00 W/m2
01:00 9.8 °C 8.1 °C 1015.8 hPa North 6.4 km/h 8.0 km/h 89% 0.0 mm 0.00 W/m2
01:05 9.8 °C 8.1 °C 1015.8 hPa NW 3.2 km/h 3.2 km/h 89% 0.0 mm 0.00 W/m2
01:10 9.9 °C 8.2 °C 1015.8 hPa North 1.4 km/h 12.9 km/h 89% 0.0 mm 0.00 W/m2
01:15 9.9 °C 8.2 °C 1015.8 hPa NNW 1.4 km/h 12.9 km/h 89% 0.0 mm 0.00 W/m2
01:20 9.9 °C 8.2 °C 1015.8 hPa North 4.7 km/h 11.3 km/h 89% 0.0 mm 0.00 W/m2
01:25 10.0 °C 8.3 °C 1015.8 hPa NW 6.4 km/h 8.0 km/h 89% 0.0 mm 0.00 W/m2
01:30 10.1 °C 8.4 °C 1015.8 hPa North 4.7 km/h 14.5 km/h 89% 0.0 mm 0.00 W/m2
01:35 10.0 °C 8.3 °C 1015.8 hPa NNW 4.7 km/h 6.4 km/h 89% 0.0 mm 0.00 W/m2
01:40 10.0 °C 8.3 °C 1015.8 hPa NNW 9.7 km/h 14.5 km/h 89% 0.0 mm 0.00 W/m2
01:45 10.1 °C 8.2 °C 1016.1 hPa NNW 3.2 km/h 6.4 km/h 88% 0.0 mm 0.00 W/m2
01:50 10.0 °C 8.1 °C 1015.8 hPa Calm   14.5 km/h 88% 0.0 mm 0.00 W/m2
01:55 10.1 °C 8.2 °C 1016.1 hPa Calm   3.2 km/h 88% 0.0 mm 0.00 W/m2
02:00 10.1 °C 8.2 °C 1015.8 hPa NE 9.7 km/h 19.3 km/h 88% 0.0 mm 0.00 W/m2
02:05 10.1 °C 8.2 °C 1015.8 hPa NNW 4.7 km/h 19.3 km/h 88% 0.0 mm 0.00 W/m2
02:10 10.1 °C 8.2 °C 1015.8 hPa NNE 16.3 km/h 19.3 km/h 88% 0.0 mm 0.00 W/m2
02:15 10.1 °C 8.2 °C 1015.8 hPa NNW 7.9 km/h 19.3 km/h 88% 0.0 mm 0.00 W/m2
02:20 10.1 °C 8.2 °C 1015.8 hPa NE 7.9 km/h 12.9 km/h 88% 0.0 mm 0.00 W/m2
02:25 10.1 °C 8.2 °C 1015.8 hPa NW 13.0 km/h 19.3 km/h 88% 0.0 mm 0.00 W/m2
02:30 10.1 °C 8.2 °C 1016.1 hPa NNE 6.4 km/h 19.3 km/h 88% 0.0 mm 0.00 W/m2
02:35 10.2 °C 8.3 °C 1016.1 hPa North 6.4 km/h 19.3 km/h 88% 0.0 mm 0.00 W/m2
02:40 10.2 °C 8.1 °C 1016.1 hPa North 13.0 km/h 22.5 km/h 87% 0.0 mm 0.00 W/m2
02:45 10.2 °C 8.1 °C 1016.1 hPa NNE 4.7 km/h 9.7 km/h 87% 0.0 mm 0.00 W/m2
02:50 10.2 °C 8.1 °C 1016.1 hPa North 3.2 km/h 12.9 km/h 87% 0.0 mm 0.00 W/m2
02:55 10.2 °C 8.1 °C 1016.1 hPa North 1.4 km/h 12.9 km/h 87% 0.0 mm 0.00 W/m2
03:00 10.1 °C 8.0 °C 1016.1 hPa North 9.7 km/h 16.1 km/h 87% 0.0 mm 0.00 W/m2
03:05 10.0 °C 7.9 °C 1016.1 hPa NW 6.4 km/h 12.9 km/h 87% 0.0 mm 0.00 W/m2
03:10 10.0 °C 7.9 °C 1016.5 hPa North 6.4 km/h 19.3 km/h 87% 0.0 mm 0.00 W/m2
03:15 9.9 °C 8.0 °C 1016.5 hPa NNE 19.5 km/h 20.9 km/h 88% 0.0 mm 0.00 W/m2
03:20 9.9 °C 7.8 °C 1016.5 hPa NE 11.1 km/h 20.9 km/h 87% 0.0 mm 0.00 W/m2
03:25 9.9 °C 7.8 °C 1016.5 hPa NNW 11.1 km/h 17.7 km/h 87% 0.0 mm 0.00 W/m2
03:30 9.9 °C 7.8 °C 1016.5 hPa NNE 7.9 km/h 19.3 km/h 87% 0.0 mm 0.00 W/m2
03:35 9.9 °C 7.8 °C 1016.5 hPa North 6.4 km/h 6.4 km/h 87% 0.0 mm 0.00 W/m2
03:40 9.9 °C 7.8 °C 1016.8 hPa NNW 9.7 km/h 19.3 km/h 87% 0.0 mm 0.00 W/m2
03:45 9.9 °C 7.8 °C 1016.8 hPa North 7.9 km/h 16.1 km/h 87% 0.0 mm 0.00 W/m2
03:50 9.9 °C 7.8 °C 1016.8 hPa Calm   8.0 km/h 87% 0.0 mm 0.00 W/m2
03:55 9.9 °C 7.8 °C 1016.8 hPa NNE 6.4 km/h 12.9 km/h 87% 0.0 mm 0.00 W/m2
04:00 9.9 °C 8.0 °C 1016.8 hPa NNE 7.9 km/h 12.9 km/h 88% 0.0 mm 0.00 W/m2
04:05 9.9 °C 8.0 °C 1016.8 hPa NNW 4.7 km/h 17.7 km/h 88% 0.0 mm 0.00 W/m2
04:10 9.8 °C 7.9 °C 1016.8 hPa North 7.9 km/h 12.9 km/h 88% 0.0 mm 0.00 W/m2
04:15 9.7 °C 7.8 °C 1016.8 hPa NNE 6.4 km/h 14.5 km/h 88% 0.0 mm 0.00 W/m2
04:20 9.6 °C 7.7 °C 1016.8 hPa NW 7.9 km/h 12.9 km/h 88% 0.0 mm 0.00 W/m2
04:25 9.6 °C 7.9 °C 1016.8 hPa NNE 6.4 km/h 14.5 km/h 89% 0.0 mm 0.00 W/m2
04:30 9.4 °C 7.7 °C 1017.2 hPa NNW 6.4 km/h 6.4 km/h 89% 0.0 mm 0.00 W/m2
04:35 9.4 °C 7.7 °C 1017.2 hPa North 7.9 km/h 17.7 km/h 89% 0.0 mm 0.00 W/m2
04:40 9.4 °C 7.8 °C 1017.2 hPa NNW 3.2 km/h 11.3 km/h 90% 0.0 mm 0.00 W/m2
04:45 9.3 °C 7.7 °C 1017.2 hPa North 1.4 km/h 12.9 km/h 90% 0.0 mm 0.00 W/m2
04:50 9.2 °C 7.6 °C 1017.2 hPa NNW 6.4 km/h 11.3 km/h 90% 0.0 mm 0.00 W/m2
04:55 9.2 °C 7.6 °C 1017.2 hPa North 3.2 km/h 8.0 km/h 90% 0.0 mm 0.00 W/m2
05:00 9.2 °C 7.8 °C 1017.2 hPa WNW 6.4 km/h 11.3 km/h 91% 0.0 mm 0.00 W/m2
05:05 9.2 °C 7.8 °C 1017.2 hPa NNW 9.7 km/h 14.5 km/h 91% 0.0 mm 0.00 W/m2
05:10 9.2 °C 7.8 °C 1017.2 hPa NNW 1.4 km/h 8.0 km/h 91% 0.0 mm 0.00 W/m2
05:15 9.2 °C 7.8 °C 1017.2 hPa North 9.7 km/h 19.3 km/h 91% 0.0 mm 0.00 W/m2
05:20 9.2 °C 7.8 °C 1017.2 hPa NNW 7.9 km/h 11.3 km/h 91% 0.0 mm 0.00 W/m2
05:25 9.2 °C 7.8 °C 1017.2 hPa NW 11.1 km/h 17.7 km/h 91% 0.0 mm 0.00 W/m2
05:30 9.2 °C 7.8 °C 1017.2 hPa North 1.4 km/h 9.7 km/h 91% 0.0 mm 0.00 W/m2
05:35 9.2 °C 7.8 °C 1017.2 hPa North 6.4 km/h 17.7 km/h 91% 0.0 mm 0.00 W/m2
05:40 9.1 °C 7.7 °C 1017.2 hPa NNW 7.9 km/h 11.3 km/h 91% 0.0 mm 0.00 W/m2
05:45 9.1 °C 7.7 °C 1017.2 hPa NNW 6.4 km/h 11.3 km/h 91% 0.0 mm 0.00 W/m2
05:50 9.1 °C 7.7 °C 1017.2 hPa North 11.1 km/h 12.9 km/h 91% 0.0 mm 0.00 W/m2
05:55 9.1 °C 7.7 °C 1017.2 hPa North 14.3 km/h 14.5 km/h 91% 0.0 mm 0.00 W/m2
06:00 8.9 °C 7.5 °C 1017.5 hPa NNW 4.7 km/h 8.0 km/h 91% 0.0 mm 0.00 W/m2
06:05 8.9 °C 7.5 °C 1017.5 hPa NW 3.2 km/h 9.7 km/h 91% 0.0 mm 0.00 W/m2
06:10 8.9 °C 7.5 °C 1017.5 hPa NW 6.4 km/h 9.7 km/h 91% 0.0 mm 0.00 W/m2
06:15 8.9 °C 7.5 °C 1017.5 hPa NNW 1.4 km/h 9.7 km/h 91% 0.0 mm 0.00 W/m2
06:20 9.0 °C 7.6 °C 1017.5 hPa WNW 11.3 km/h 11.3 km/h 91% 0.0 mm 0.00 W/m2
06:25 9.0 °C 7.6 °C 1017.8 hPa North 4.7 km/h 12.9 km/h 91% 0.0 mm 0.00 W/m2
06:30 9.0 °C 7.6 °C 1017.8 hPa North 17.7 km/h 17.7 km/h 91% 0.0 mm 0.00 W/m2
06:35 9.0 °C 7.6 °C 1017.8 hPa NNW 3.2 km/h 11.3 km/h 91% 0.0 mm 0.00 W/m2
06:40 9.0 °C 7.6 °C 1017.8 hPa NW 7.9 km/h 8.0 km/h 91% 0.0 mm 0.00 W/m2
06:45 8.9 °C 7.5 °C 1017.8 hPa WNW 3.2 km/h 6.4 km/h 91% 0.0 mm 0.00 W/m2
06:50 8.9 °C 7.5 °C 1018.2 hPa North 4.7 km/h 9.7 km/h 91% 0.0 mm 0.00 W/m2
06:55 8.9 °C 7.5 °C 1018.2 hPa NNW 14.3 km/h 16.1 km/h 91% 0.0 mm 0.00 W/m2
07:00 8.9 °C 7.5 °C 1018.2 hPa NNW 6.4 km/h 11.3 km/h 91% 0.0 mm 0.00 W/m2
07:05 8.9 °C 7.5 °C 1018.2 hPa NNW 9.7 km/h 14.5 km/h 91% 0.0 mm 0.00 W/m2
07:10 9.0 °C 7.6 °C 1018.2 hPa North 9.7 km/h 12.9 km/h 91% 0.0 mm 0.00 W/m2
07:15 9.1 °C 7.7 °C 1018.2 hPa North 4.7 km/h 16.1 km/h 91% 0.0 mm 0.00 W/m2
07:20 9.1 °C 7.7 °C 1018.5 hPa NW 6.4 km/h 8.0 km/h 91% 0.0 mm 0.00 W/m2
07:25 9.1 °C 7.7 °C 1018.2 hPa NNW 4.7 km/h 9.7 km/h 91% 0.0 mm 0.00 W/m2
07:30 9.1 °C 7.7 °C 1018.2 hPa North 6.4 km/h 11.3 km/h 91% 0.0 mm 0.00 W/m2
07:35 9.1 °C 7.7 °C 1018.5 hPa NNW 16.1 km/h 16.1 km/h 91% 0.0 mm 0.00 W/m2
07:40 9.1 °C 7.9 °C 1018.5 hPa NW 4.7 km/h 11.3 km/h 92% 0.0 mm 0.00 W/m2
07:45 9.1 °C 7.9 °C 1018.5 hPa NW 6.4 km/h 14.5 km/h 92% 0.0 mm 0.00 W/m2
07:50 9.1 °C 7.9 °C 1018.5 hPa NNW 6.4 km/h 14.5 km/h 92% 0.0 mm 5.00 W/m2
07:55 9.1 °C 7.9 °C 1018.5 hPa Calm   11.3 km/h 92% 0.0 mm 9.00 W/m2
08:00 9.1 °C 7.9 °C 1018.5 hPa North 4.7 km/h 14.5 km/h 92% 0.0 mm 9.00 W/m2
08:05 9.2 °C 8.0 °C 1018.5 hPa NW 3.2 km/h 11.3 km/h 92% 0.0 mm 9.00 W/m2
08:10 9.2 °C 8.0 °C 1018.8 hPa NW 6.4 km/h 11.3 km/h 92% 0.0 mm 12.00 W/m2
08:15 9.2 °C 8.0 °C 1018.8 hPa NW 14.5 km/h 14.5 km/h 92% 0.0 mm 19.00 W/m2
08:20 9.2 °C 8.0 °C 1018.8 hPa WNW 6.4 km/h 14.5 km/h 92% 0.0 mm 19.00 W/m2
08:25 9.3 °C 8.1 °C 1018.8 hPa North 1.4 km/h 6.4 km/h 92% 0.0 mm 18.00 W/m2
08:30 9.3 °C 8.1 °C 1018.8 hPa NW 1.4 km/h 8.0 km/h 92% 0.0 mm 25.00 W/m2
08:35 9.3 °C 8.1 °C 1018.8 hPa Calm     92% 0.0 mm 26.00 W/m2
08:40 9.4 °C 8.2 °C 1018.8 hPa Calm     92% 0.0 mm 35.00 W/m2
08:45 9.4 °C 8.2 °C 1019.2 hPa NW 4.7 km/h 6.4 km/h 92% 0.0 mm 42.00 W/m2
08:50 9.5 °C 8.3 °C 1019.2 hPa Calm   8.0 km/h 92% 0.0 mm 58.00 W/m2
08:55 9.5 °C 8.3 °C 1019.2 hPa WNW 1.4 km/h 4.8 km/h 92% 0.0 mm 53.00 W/m2
09:00 9.6 °C 8.4 °C 1019.2 hPa NW 3.2 km/h 6.4 km/h 92% 0.0 mm 44.00 W/m2
09:05 9.6 °C 8.4 °C 1019.2 hPa Calm   8.0 km/h 92% 0.0 mm 49.00 W/m2
09:10 9.6 °C 8.4 °C 1019.5 hPa NNW 3.2 km/h 6.4 km/h 92% 0.0 mm 44.00 W/m2
09:15 9.7 °C 8.5 °C 1019.5 hPa NNW 11.3 km/h 11.3 km/h 92% 0.0 mm 54.00 W/m2
09:20 9.7 °C 8.5 °C 1019.5 hPa NNE 4.7 km/h 11.3 km/h 92% 0.0 mm 84.00 W/m2
09:25 9.7 °C 8.3 °C 1019.5 hPa WNW 3.2 km/h 11.3 km/h 91% 0.0 mm 81.00 W/m2
09:30 9.8 °C 8.4 °C 1019.5 hPa NNW 4.7 km/h 12.9 km/h 91% 0.0 mm 67.00 W/m2
09:35 9.8 °C 8.4 °C 1019.5 hPa NW 14.5 km/h 14.5 km/h 91% 0.0 mm 74.00 W/m2
09:40 9.9 °C 8.5 °C 1019.5 hPa North 1.4 km/h 11.3 km/h 91% 0.0 mm 83.00 W/m2
09:45 9.9 °C 8.5 °C 1019.5 hPa NNE 13.0 km/h 14.5 km/h 91% 0.0 mm 60.00 W/m2
09:50 10.0 °C 8.6 °C 1019.5 hPa North 4.7 km/h 19.3 km/h 91% 0.0 mm 100.00 W/m2
09:55 10.0 °C 8.6 °C 1019.9 hPa North 3.2 km/h 11.3 km/h 91% 0.0 mm 113.00 W/m2
10:00 10.0 °C 8.6 °C 1019.9 hPa NW 7.9 km/h 11.3 km/h 91% 0.0 mm 123.00 W/m2
10:05 10.0 °C 8.6 °C 1019.9 hPa North 11.1 km/h 11.3 km/h 91% 0.0 mm 141.00 W/m2
10:10 10.1 °C 8.7 °C 1019.9 hPa North 7.9 km/h 17.7 km/h 91% 0.0 mm 123.00 W/m2
10:15 10.2 °C 8.8 °C 1019.9 hPa North 4.7 km/h 16.1 km/h 91% 0.0 mm 97.00 W/m2
10:20 10.3 °C 8.9 °C 1019.9 hPa North 7.9 km/h 9.7 km/h 91% 0.0 mm 97.00 W/m2
10:25 10.3 °C 8.9 °C 1020.2 hPa NNE 6.4 km/h 14.5 km/h 91% 0.0 mm 100.00 W/m2
10:30 10.4 °C 9.0 °C 1020.2 hPa NNE 4.7 km/h 11.3 km/h 91% 0.0 mm 70.00 W/m2
10:35 10.5 °C 9.1 °C 1020.2 hPa Calm   3.2 km/h 91% 0.0 mm 53.00 W/m2
10:40 10.6 °C 9.2 °C 1020.2 hPa North 16.1 km/h 16.1 km/h 91% 0.0 mm 79.00 W/m2
10:45 10.4 °C 9.0 °C 1020.2 hPa NNW 9.7 km/h 16.1 km/h 91% 0.0 mm 88.00 W/m2
10:50 10.4 °C 8.8 °C 1020.2 hPa North 4.7 km/h 6.4 km/h 90% 0.0 mm 134.00 W/m2
10:55 10.6 °C 9.2 °C 1020.2 hPa NE 3.2 km/h 12.9 km/h 91% 0.0 mm 171.00 W/m2
11:00 10.7 °C 9.3 °C 1020.2 hPa NW 1.4 km/h 11.3 km/h 91% 0.0 mm 172.00 W/m2
11:05 10.8 °C 9.2 °C 1020.2 hPa NNW 1.4 km/h 12.9 km/h 90% 0.0 mm 188.00 W/m2
11:10 10.8 °C 9.2 °C 1020.5 hPa North 1.4 km/h 14.5 km/h 90% 0.0 mm 155.00 W/m2
11:15 10.9 °C 9.3 °C 1020.5 hPa NE 6.4 km/h 12.9 km/h 90% 0.0 mm 151.00 W/m2
11:20 10.9 °C 9.3 °C 1020.5 hPa NNW 4.7 km/h 9.7 km/h 90% 0.0 mm 123.00 W/m2
11:25 11.0 °C 9.3 °C 1020.5 hPa NNE 1.4 km/h 14.5 km/h 89% 0.0 mm 153.00 W/m2
11:30 11.1 °C 9.4 °C 1020.5 hPa NNW 4.7 km/h 11.3 km/h 89% 0.0 mm 195.00 W/m2
11:35 11.2 °C 9.5 °C 1020.5 hPa NNW 4.7 km/h 14.5 km/h 89% 0.0 mm 183.00 W/m2
11:40 11.2 °C 9.3 °C 1020.5 hPa North 6.4 km/h 12.9 km/h 88% 0.0 mm 132.00 W/m2
11:45 11.4 °C 9.5 °C 1020.5 hPa NNE 3.2 km/h 4.8 km/h 88% 0.0 mm 158.00 W/m2
11:50 11.5 °C 9.6 °C 1020.5 hPa North 4.7 km/h 14.5 km/h 88% 0.0 mm 146.00 W/m2
11:55 11.5 °C 9.4 °C 1020.5 hPa NE 4.7 km/h 14.5 km/h 87% 0.0 mm 181.00 W/m2
12:00 11.6 °C 9.5 °C 1020.5 hPa NNE 9.7 km/h 11.3 km/h 87% 0.0 mm 155.00 W/m2
12:05 11.7 °C 9.4 °C 1020.9 hPa North 7.9 km/h 9.7 km/h 86% 0.0 mm 169.00 W/m2
12:10 11.7 °C 9.4 °C 1020.9 hPa NNE 6.4 km/h 12.9 km/h 86% 0.0 mm 218.00 W/m2
12:15 11.8 °C 9.4 °C 1020.9 hPa NNE 3.2 km/h 9.7 km/h 85% 0.0 mm 297.00 W/m2
12:20 12.1 °C 9.5 °C 1020.9 hPa NNE 4.7 km/h 12.9 km/h 84% 0.0 mm 292.00 W/m2
12:25 12.1 °C 9.3 °C 1020.9 hPa North 13.0 km/h 14.5 km/h 83% 0.0 mm 322.00 W/m2
12:30 12.3 °C 9.5 °C 1020.9 hPa North 3.2 km/h 8.0 km/h 83% 0.0 mm 241.00 W/m2
12:35 12.4 °C 9.4 °C 1020.9 hPa NNE 1.4 km/h 14.5 km/h 82% 0.0 mm 102.00 W/m2
12:40 12.3 °C 9.3 °C 1020.9 hPa North 4.7 km/h 11.3 km/h 82% 0.0 mm 123.00 W/m2
12:45 12.1 °C 9.1 °C 1020.9 hPa NNE 13.0 km/h 20.9 km/h 82% 0.0 mm 229.00 W/m2
12:50 12.0 °C 9.0 °C 1020.9 hPa NE 7.9 km/h 14.5 km/h 82% 0.0 mm 190.00 W/m2
12:55 12.1 °C 9.1 °C 1021.2 hPa North 6.4 km/h 17.7 km/h 82% 0.0 mm 160.00 W/m2
13:00 12.0 °C 9.0 °C 1020.9 hPa North 13.0 km/h 17.7 km/h 82% 0.0 mm 172.00 W/m2
13:05 12.0 °C 9.0 °C 1020.9 hPa NNE 19.5 km/h 19.3 km/h 82% 0.0 mm 162.00 W/m2
13:10 12.0 °C 9.0 °C 1020.9 hPa NNE 9.7 km/h 16.1 km/h 82% 0.0 mm 125.00 W/m2
13:15 12.0 °C 9.0 °C 1020.9 hPa North 6.4 km/h 19.3 km/h 82% 0.0 mm 213.00 W/m2
13:20 12.3 °C 9.5 °C 1020.9 hPa NNW 4.7 km/h 14.5 km/h 83% 0.0 mm 561.00 W/m2
13:25 12.4 °C 9.4 °C 1021.2 hPa North 7.9 km/h 16.1 km/h 82% 0.0 mm 376.00 W/m2
13:30 12.4 °C 9.4 °C 1021.2 hPa Calm   16.1 km/h 82% 0.0 mm 199.00 W/m2
13:35 12.3 °C 9.1 °C 1021.2 hPa NNE 6.4 km/h 19.3 km/h 81% 0.0 mm 181.00 W/m2
13:40 12.2 °C 9.0 °C 1020.9 hPa ENE 9.7 km/h 11.3 km/h 81% 0.0 mm 134.00 W/m2
13:45 12.2 °C 9.2 °C 1020.9 hPa NE 1.4 km/h 8.0 km/h 82% 0.0 mm 153.00 W/m2
13:50 12.7 °C 9.7 °C 1020.9 hPa Calm   1.6 km/h 82% 0.0 mm 160.00 W/m2
13:55 12.7 °C 9.5 °C 1020.9 hPa Calm   8.0 km/h 81% 0.0 mm 144.00 W/m2
14:00 13.0 °C 9.6 °C 1020.9 hPa Calm   3.2 km/h 80% 0.0 mm 480.00 W/m2
14:05 13.2 °C 9.6 °C 1020.9 hPa NNE 16.3 km/h 16.1 km/h 79% 0.0 mm 163.00 W/m2
14:10 13.5 °C 9.7 °C 1020.9 hPa NNE 4.7 km/h 11.3 km/h 78% 0.0 mm 519.00 W/m2
14:15 13.4 °C 9.3 °C 1020.9 hPa NE 16.3 km/h 22.5 km/h 76% 0.0 mm 202.00 W/m2
14:20 13.1 °C 9.0 °C 1021.2 hPa NNE 4.7 km/h 9.7 km/h 76% 0.0 mm 169.00 W/m2
14:25 13.0 °C 9.1 °C 1021.2 hPa NNE 1.4 km/h 17.7 km/h 77% 0.0 mm 190.00 W/m2
14:30 13.1 °C 9.2 °C 1021.2 hPa ENE 7.9 km/h 12.9 km/h 77% 0.0 mm 209.00 W/m2
14:35 13.2 °C 9.1 °C 1021.2 hPa NNE 4.7 km/h 8.0 km/h 76% 0.0 mm 234.00 W/m2
14:40 13.3 °C 9.2 °C 1020.9 hPa North 6.4 km/h 8.0 km/h 76% 0.0 mm 156.00 W/m2
14:45 13.0 °C 8.9 °C 1021.2 hPa North 19.5 km/h 19.3 km/h 76% 0.0 mm 243.00 W/m2
14:50 13.1 °C 9.0 °C 1020.9 hPa NNE 1.4 km/h 12.9 km/h 76% 0.0 mm 292.00 W/m2
14:55 13.2 °C 8.9 °C 1020.9 hPa NNW 4.7 km/h 11.3 km/h 75% 0.0 mm 223.00 W/m2
15:00 13.2 °C 8.9 °C 1020.9 hPa NNW 4.7 km/h 14.5 km/h 75% 0.0 mm 162.00 W/m2
15:05 13.1 °C 8.8 °C 1020.9 hPa North 9.7 km/h 17.7 km/h 75% 0.0 mm 125.00 W/m2
15:10 13.2 °C 8.9 °C 1020.9 hPa NE 7.9 km/h 17.7 km/h 75% 0.0 mm 123.00 W/m2
15:15 13.3 °C 9.0 °C 1020.9 hPa North 7.9 km/h 16.1 km/h 75% 0.0 mm 127.00 W/m2
15:20 13.3 °C 9.0 °C 1020.9 hPa NW 4.7 km/h 8.0 km/h 75% 0.0 mm 141.00 W/m2
15:25 13.2 °C 8.9 °C 1020.9 hPa NNW 16.1 km/h 16.1 km/h 75% 0.0 mm 120.00 W/m2
15:30 13.1 °C 9.0 °C 1021.2 hPa NNE 13.0 km/h 12.9 km/h 76% 0.0 mm 141.00 W/m2
15:35 12.8 °C 8.7 °C 1021.2 hPa North 14.3 km/h 16.1 km/h 76% 0.0 mm 107.00 W/m2
15:40 12.8 °C 8.9 °C 1021.2 hPa NNE 14.3 km/h 14.5 km/h 77% 0.0 mm 69.00 W/m2
15:45 12.7 °C 8.8 °C 1021.2 hPa NNW 7.9 km/h 9.7 km/h 77% 0.0 mm 60.00 W/m2
15:50 12.6 °C 8.7 °C 1021.2 hPa NNE 11.1 km/h 19.3 km/h 77% 0.0 mm 60.00 W/m2
15:55 12.4 °C 8.5 °C 1021.2 hPa North 14.3 km/h 16.1 km/h 77% 0.0 mm 63.00 W/m2
16:00 12.3 °C 8.6 °C 1021.2 hPa North 11.1 km/h 17.7 km/h 78% 0.0 mm 60.00 W/m2
16:05 12.2 °C 8.5 °C 1021.2 hPa NW 9.7 km/h 19.3 km/h 78% 0.0 mm 56.00 W/m2
16:10 12.2 °C 8.5 °C 1021.2 hPa NW 3.2 km/h 12.9 km/h 78% 0.0 mm 56.00 W/m2
16:15 12.2 °C 8.5 °C 1021.2 hPa North 9.7 km/h 17.7 km/h 78% 0.0 mm 53.00 W/m2
16:20 12.1 °C 8.4 °C 1021.2 hPa North 9.7 km/h 16.1 km/h 78% 0.0 mm 56.00 W/m2
16:25 12.1 °C 8.6 °C 1021.2 hPa NNW 1.4 km/h 6.4 km/h 79% 0.0 mm 54.00 W/m2
16:30 12.1 °C 8.6 °C 1021.2 hPa NNW 1.4 km/h 8.0 km/h 79% 0.0 mm 47.00 W/m2
16:35 12.1 °C 8.6 °C 1021.2 hPa NNW 6.4 km/h 6.4 km/h 79% 0.0 mm 46.00 W/m2
16:40 12.1 °C 8.6 °C 1021.2 hPa North 4.7 km/h 9.7 km/h 79% 0.0 mm 44.00 W/m2
16:45 12.0 °C 8.7 °C 1021.2 hPa North 6.4 km/h 16.1 km/h 80% 0.0 mm 40.00 W/m2
16:50 11.9 °C 8.6 °C 1021.2 hPa NW 9.7 km/h 12.9 km/h 80% 0.0 mm 33.00 W/m2
16:55 11.9 °C 8.6 °C 1021.2 hPa North 1.4 km/h 6.4 km/h 80% 0.0 mm 28.00 W/m2
17:00 11.8 °C 8.5 °C 1021.2 hPa North 11.3 km/h 11.3 km/h 80% 0.0 mm 23.00 W/m2
17:05 11.8 °C 8.5 °C 1021.2 hPa North 11.1 km/h 12.9 km/h 80% 0.0 mm 19.00 W/m2
17:10 11.7 °C 8.4 °C 1021.2 hPa North 11.1 km/h 11.3 km/h 80% 0.0 mm 16.00 W/m2
17:15 11.7 °C 8.4 °C 1021.2 hPa North 1.4 km/h 11.3 km/h 80% 0.0 mm 16.00 W/m2
17:20 11.7 °C 8.4 °C 1021.2 hPa NNE 6.4 km/h 9.7 km/h 80% 0.0 mm 14.00 W/m2
17:25 11.7 °C 8.4 °C 1021.2 hPa NNE 11.3 km/h 11.3 km/h 80% 0.0 mm 12.00 W/m2
17:30 11.6 °C 8.3 °C 1021.2 hPa North 7.9 km/h 8.0 km/h 80% 0.0 mm 11.00 W/m2
17:35 11.6 °C 8.3 °C 1021.2 hPa NNW 3.2 km/h 4.8 km/h 80% 0.0 mm 9.00 W/m2
17:40 11.6 °C 8.3 °C 1021.2 hPa NNW 6.4 km/h 8.0 km/h 80% 0.0 mm 7.00 W/m2
17:45 11.6 °C 8.3 °C 1021.2 hPa North 4.7 km/h 11.3 km/h 80% 0.0 mm 5.00 W/m2
17:50 11.6 °C 8.3 °C 1021.2 hPa NNE 3.2 km/h 11.3 km/h 80% 0.0 mm 5.00 W/m2
17:55 11.6 °C 8.3 °C 1021.6 hPa North 4.7 km/h 8.0 km/h 80% 0.0 mm 0.00 W/m2
18:00 11.7 °C 8.4 °C 1021.6 hPa NNE 4.7 km/h 6.4 km/h 80% 0.0 mm 0.00 W/m2
18:05 11.7 °C 8.4 °C 1021.6 hPa North 3.2 km/h 4.8 km/h 80% 0.0 mm 0.00 W/m2
18:10 11.7 °C 8.4 °C 1021.6 hPa Calm   4.8 km/h 80% 0.0 mm 0.00 W/m2
18:15 11.6 °C 8.3 °C 1021.6 hPa North 1.4 km/h 1.6 km/h 80% 0.0 mm 0.00 W/m2
18:20 11.6 °C 8.3 °C 1021.6 hPa North 1.4 km/h 1.6 km/h 80% 0.0 mm 0.00 W/m2
18:25 11.6 °C 8.3 °C 1021.9 hPa Calm     80% 0.0 mm 0.00 W/m2
18:30 11.6 °C 8.5 °C 1021.9 hPa Calm     81% 0.0 mm 0.00 W/m2
18:35 11.6 °C 8.5 °C 1021.9 hPa Calm     81% 0.0 mm 0.00 W/m2
18:40 11.5 °C 8.4 °C 1022.2 hPa Calm     81% 0.0 mm 0.00 W/m2
18:45 11.4 °C 8.4 °C 1022.2 hPa Calm     82% 0.0 mm 0.00 W/m2
18:50 11.4 °C 8.4 °C 1022.2 hPa Calm   3.2 km/h 82% 0.0 mm 0.00 W/m2
18:55 11.3 °C 8.3 °C 1022.2 hPa Calm     82% 0.0 mm 0.00 W/m2
19:00 11.3 °C 8.5 °C 1022.2 hPa Calm     83% 0.0 mm 0.00 W/m2
19:05 11.3 °C 8.5 °C 1022.2 hPa Calm     83% 0.0 mm 0.00 W/m2
19:10 11.3 °C 8.5 °C 1022.6 hPa Calm     83% 0.0 mm 0.00 W/m2
19:15 11.3 °C 8.5 °C 1022.6 hPa Calm     83% 0.0 mm 0.00 W/m2
19:20 11.2 °C 8.4 °C 1022.6 hPa Calm     83% 0.0 mm 0.00 W/m2
19:25 11.2 °C 8.6 °C 1022.6 hPa Calm     84% 0.0 mm 0.00 W/m2
19:30 11.2 °C 8.6 °C 1022.9 hPa Calm     84% 0.0 mm 0.00 W/m2
19:35 11.2 °C 8.6 °C 1022.9 hPa Calm     84% 0.0 mm 0.00 W/m2
19:40 11.2 °C 8.6 °C 1022.9 hPa Calm     84% 0.0 mm 0.00 W/m2
19:45 11.2 °C 8.8 °C 1022.9 hPa Calm     85% 0.0 mm 0.00 W/m2
19:50 11.2 °C 8.8 °C 1022.9 hPa Calm     85% 0.0 mm 0.00 W/m2
19:55 11.1 °C 8.7 °C 1022.9 hPa Calm     85% 0.0 mm 0.00 W/m2
20:00 11.1 °C 8.7 °C 1022.9 hPa Calm     85% 0.0 mm 0.00 W/m2
20:05 11.1 °C 8.7 °C 1022.9 hPa Calm     85% 0.0 mm 0.00 W/m2
20:10 11.0 °C 8.6 °C 1022.9 hPa Calm     85% 0.0 mm 0.00 W/m2
20:15 10.9 °C 8.5 °C 1022.9 hPa Calm     85% 0.0 mm 0.00 W/m2
20:20 10.9 °C 8.5 °C 1022.9 hPa Calm   1.6 km/h 85% 0.0 mm 0.00 W/m2
20:25 10.9 °C 8.3 °C 1022.9 hPa Calm     84% 0.0 mm 0.00 W/m2
20:30 10.9 °C 8.3 °C 1022.9 hPa Calm     84% 0.0 mm 0.00 W/m2
20:35 10.9 °C 8.3 °C 1022.9 hPa Calm     84% 0.0 mm 0.00 W/m2
20:40 10.9 °C 8.3 °C 1022.9 hPa Calm     84% 0.0 mm 0.00 W/m2
20:45 10.9 °C 8.3 °C 1022.9 hPa Calm   1.6 km/h 84% 0.0 mm 0.00 W/m2
20:50 10.8 °C 8.2 °C 1022.9 hPa Calm   1.6 km/h 84% 0.0 mm 0.00 W/m2
20:55 10.9 °C 8.3 °C 1022.9 hPa Calm     84% 0.0 mm 0.00 W/m2
21:00 10.9 °C 8.3 °C 1022.9 hPa Calm     84% 0.0 mm 0.00 W/m2
21:05 10.8 °C 8.2 °C 1022.9 hPa NNW 3.2 km/h 3.2 km/h 84% 0.0 mm 0.00 W/m2
21:10 10.8 °C 8.2 °C 1022.9 hPa Calm   1.6 km/h 84% 0.0 mm 0.00 W/m2
21:15 10.8 °C 8.4 °C 1022.9 hPa Calm   1.6 km/h 85% 0.0 mm 0.00 W/m2
21:20 10.7 °C 8.3 °C 1022.9 hPa NNW 4.8 km/h 4.8 km/h 85% 0.0 mm 0.00 W/m2
21:25 10.6 °C 8.2 °C 1023.2 hPa Calm     85% 0.0 mm 0.00 W/m2
21:30 10.6 °C 8.0 °C 1022.9 hPa Calm   1.6 km/h 84% 0.0 mm 0.00 W/m2
21:35 10.6 °C 8.0 °C 1022.9 hPa Calm     84% 0.0 mm 0.00 W/m2
21:40 10.6 °C 8.2 °C 1022.9 hPa Calm     85% 0.0 mm 0.00 W/m2
21:45 10.6 °C 8.0 °C 1023.2 hPa NNW 3.2 km/h 3.2 km/h 84% 0.0 mm 0.00 W/m2
21:50 10.4 °C 8.0 °C 1023.2 hPa Calm   1.6 km/h 85% 0.0 mm 0.00 W/m2
21:55 10.2 °C 7.8 °C 1023.2 hPa Calm     85% 0.0 mm 0.00 W/m2
22:00 10.2 °C 7.8 °C 1023.2 hPa NNW 1.4 km/h 1.6 km/h 85% 0.0 mm 0.00 W/m2
22:05 10.2 °C 7.8 °C 1023.2 hPa Calm     85% 0.0 mm 0.00 W/m2
22:10 10.1 °C 7.7 °C 1023.2 hPa Calm     85% 0.0 mm 0.00 W/m2
22:15 10.0 °C 7.8 °C 1023.2 hPa Calm   1.6 km/h 86% 0.0 mm 0.00 W/m2
22:20 9.9 °C 7.7 °C 1023.2 hPa Calm   1.6 km/h 86% 0.0 mm 0.00 W/m2
22:25 9.8 °C 7.6 °C 1023.2 hPa Calm     86% 0.0 mm 0.00 W/m2
22:30 9.7 °C 7.5 °C 1023.2 hPa Calm     86% 0.0 mm 0.00 W/m2
22:35 9.7 °C 7.6 °C 1023.2 hPa Calm     87% 0.0 mm 0.00 W/m2
22:40 9.7 °C 7.6 °C 1023.2 hPa NNW 3.2 km/h 3.2 km/h 87% 0.0 mm 0.00 W/m2
22:45 9.6 °C 7.5 °C 1023.2 hPa Calm   1.6 km/h 87% 0.0 mm 0.00 W/m2
22:50 9.6 °C 7.5 °C 1023.2 hPa Calm     87% 0.0 mm 0.00 W/m2
22:55 9.7 °C 7.6 °C 1023.2 hPa Calm     87% 0.0 mm 0.00 W/m2
23:00 9.6 °C 7.5 °C 1023.2 hPa Calm     87% 0.0 mm 0.00 W/m2
23:05 9.6 °C 7.7 °C 1023.2 hPa Calm     88% 0.0 mm 0.00 W/m2
23:10 9.6 °C 7.7 °C 1023.2 hPa Calm     88% 0.0 mm 0.00 W/m2
23:15 9.6 °C 7.7 °C 1023.2 hPa Calm     88% 0.0 mm 0.00 W/m2
23:20 9.4 °C 7.5 °C 1023.2 hPa Calm     88% 0.0 mm 0.00 W/m2
23:25 9.4 °C 7.5 °C 1023.2 hPa Calm   1.6 km/h 88% 0.0 mm 0.00 W/m2
23:30 9.4 °C 7.5 °C 1022.9 hPa Calm     88% 0.0 mm 0.00 W/m2
23:35 9.4 °C 7.5 °C 1023.2 hPa Calm     88% 0.0 mm 0.00 W/m2
23:40 9.3 °C 7.4 °C 1023.2 hPa Calm     88% 0.0 mm 0.00 W/m2
23:45 9.2 °C 7.3 °C 1023.2 hPa Calm     88% 0.0 mm 0.00 W/m2
23:50 9.1 °C 7.2 °C 1023.2 hPa Calm     88% 0.0 mm 0.00 W/m2
23:55 9.1 °C 7.4 °C 1023.2 hPa Calm     89% 0.0 mm 0.00 W/m2